GW3084 Weather Reports


Display with metric or nautical units.
time (UTC)temp
F
wind
direction
speed
MPH
gust
MPH
rain 1hr
in
rain 24hr
in
rain mn
in
humidity
%
barometer
mb
20260506173030 46 89 2.0 6.0 0.00 0.00 0.00 71 1013.5
20260506172028 46 114 3.0 9.0 0.00 0.00 0.00 70 1013.7
20260506171044 46 105 3.0 7.0 0.00 0.00 0.00 71 1013.8
20260506170020 44 107 2.0 8.0 0.00 0.00 0.00 74 1013.5
20260506165016 45 115 2.0 6.0 0.00 0.00 0.00 72 1013.6
20260506164053 47 91 2.0 6.0 0.00 0.00 0.00 69 1013.7
20260506162026 46 131 3.0 9.0 0.00 0.00 0.00 71 1013.5
20260506161024 47 122 4.0 8.0 0.00 0.00 0.00 68 1013.5
20260506160021 48 134 3.0 9.0 0.00 0.00 0.00 66 1013.5
20260506155016 49 122 3.0 8.0 0.00 0.00 0.00 64 1013.5
20260506154033 48 144 4.0 9.0 0.00 0.00 0.00 66 1013.5
20260506153030 47 130 5.0 10.0 0.00 0.00 0.00 67 1013.5
20260506152026 48 140 4.0 10.0 0.00 0.00 0.00 65 1013.6
20260506151023 48 139 3.0 9.0 0.00 0.00 0.00 64 1013.6
20260506150020 48 134 3.0 9.0 0.00 0.00 0.00 63 1013.7
20260506145017 48 151 3.0 8.0 0.00 0.00 0.00 64 1013.6
20260506144033 47 131 3.0 11.0 0.00 0.00 0.00 67 1013.4
20260506143030 47 119 4.0 9.0 0.00 0.00 0.00 67 1013.4
20260506142027 47 124 3.0 9.0 0.00 0.00 0.00 68 1013.4
20260506141024 47 123 3.0 8.0 0.00 0.00 0.00 70 1013.4
20260506140020 47 116 3.0 10.0 0.00 0.00 0.00 70 1013.4
20260506135018 46 113 3.0 8.0 0.00 0.00 0.00 72 1013.3
20260506134033 45 102 4.0 9.0 0.00 0.00 0.00 74 1013.4
20260506133030 44 112 3.0 7.0 0.00 0.00 0.00 74 1013.4
20260506132027 46 101 2.0 7.0 0.00 0.00 0.00 70 1013.2
20260506131023 46 95 1.0 4.0 0.00 0.00 0.00 71 1013.1
20260506130020 46 101 1.0 4.0 0.00 0.00 0.00 70 1013.0
20260506125038 45 108 1.0 6.0 0.00 0.00 0.00 72 1012.8
20260506124033 45 64 1.0 4.0 0.00 0.00 0.00 74 1012.8
20260506123030 44 108 1.0 6.0 0.00 0.00 0.00 76 1012.7
20260506122026 42 8 1.0 6.0 0.00 0.00 0.00 82 1012.8
20260506121024 40 2 1.0 4.0 0.00 0.00 0.00 87 1012.8
20260506120019 38 359 1.0 4.0 0.00 0.00 0.00 87 1012.8
20260506115016 37 332 1.0 3.0 0.00 0.00 0.00 87 1012.7
20260506114054 36 328 1.0 3.0 0.00 0.00 0.00 89 1012.7
20260506113029 35 333 0.0 1.0 0.00 0.00 0.00 89 1012.4
20260506112026 34 0.0 0.0 0.00 0.00 0.00 88 1012.4
20260506111023 34 0.0 0.0 0.00 0.00 0.00 88 1012.4
20260506110020 34 286 0.0 1.0 0.00 0.00 0.00 88 1012.2
20260506105036 34 279 0.0 1.0 0.00 0.00 0.00 88 1012.1
20260506104033 34 285 0.0 1.0 0.00 0.00 0.00 88 1012.0
20260506103029 34 334 0.0 1.0 0.00 0.00 0.00 88 1011.8
20260506102025 34 0.0 0.0 0.00 0.00 0.00 87 1011.7
20260506101023 35 318 0.0 1.0 0.00 0.00 0.00 88 1011.8
20260506100020 35 0.0 0.0 0.00 0.00 0.00 88 1011.8
20260506095015 35 0.0 0.0 0.00 0.00 0.00 87 1011.7
20260506094032 35 295 0.0 1.0 0.00 0.00 0.00 86 1011.8
20260506093028 35 0.0 0.0 0.00 0.00 0.00 85 1011.8
20260506092025 35 0.0 0.0 0.00 0.00 0.00 85 1011.7
20260506091102 35 0.0 0.0 0.00 0.00 0.00 84 1011.6
20260506090018 36 0.0 0.0 0.00 0.00 0.00 84 1011.7
20260506085036 36 336 0.0 1.0 0.00 0.00 0.00 82 1011.5
20260506084032 36 24 0.0 1.0 0.00 0.00 0.00 81 1011.4
20260506083028 36 0.0 0.0 0.00 0.00 0.00 79 1011.5
20260506082026 37 0.0 0.0 0.00 0.00 0.00 79 1011.4
20260506081042 38 88 0.0 1.0 0.00 0.00 0.00 80 1011.3
20260506073028 39 50 0.0 3.0 0.00 0.00 0.00 71 1011.2
20260506072026 40 28 1.0 4.0 0.00 0.00 0.00 69 1011.3
20260506071021 39 16 1.0 6.0 0.00 0.00 0.00 59 1011.3
20260506062024 39 0.0 0.0 0.00 0.00 0.00 54 1011.0
20260506061022 40 281 0.0 1.0 0.00 0.00 0.00 54 1011.1
20260506051020 42 299 0.0 1.0 0.00 0.00 0.00 49 1011.1
20260506045033 43 317 1.0 2.0 0.00 0.00 0.00 48 1011.1
20260506044030 43 312 1.0 2.0 0.00 0.00 0.00 47 1011.0
20260506043027 44 318 1.0 3.0 0.00 0.00 0.00 46 1010.9
20260506042024 44 322 1.0 4.0 0.00 0.00 0.00 46 1010.9
20260506041020 44 313 1.0 3.0 0.00 0.00 0.00 46 1010.8
20260506040017 45 319 1.0 4.0 0.00 0.00 0.00 45 1010.9
20260506035034 45 320 2.0 4.0 0.00 0.00 0.00 44 1010.8
20260506034030 45 319 1.0 6.0 0.00 0.00 0.00 44 1011.0
20260506033027 45 320 2.0 6.0 0.00 0.00 0.00 43 1011.1
20260506032044 46 327 1.0 4.0 0.00 0.00 0.00 43 1010.9
20260506031021 46 327 2.0 8.0 0.00 0.00 0.00 43 1011.0
20260506030017 46 323 1.0 4.0 0.00 0.00 0.00 42 1010.7
20260506025034 46 333 2.0 7.0 0.00 0.00 0.00 42 1010.7
20260506024031 47 332 3.0 10.0 0.00 0.00 0.00 41 1010.6
20260506023047 47 328 3.0 10.0 0.00 0.00 0.00 41 1010.5
20260506022024 47 332 3.0 8.0 0.00 0.00 0.00 41 1010.4
20260506021021 47 328 3.0 7.0 0.00 0.00 0.00 41 1010.4
20260506020017 47 327 3.0 7.0 0.00 0.00 0.00 40 1010.1
20260506015054 48 332 2.0 8.0 0.00 0.00 0.00 40 1010.0
20260506014052 48 326 3.0 9.0 0.00 0.00 0.00 40 1009.8
20260506013027 48 339 2.0 10.0 0.00 0.00 0.00 40 1009.7
20260506012045 49 328 3.0 9.0 0.00 0.00 0.00 39 1009.4
20260506011021 49 333 3.0 8.0 0.00 0.00 0.00 38 1009.3
20260506010017 50 338 4.0 9.0 0.00 0.00 0.00 38 1009.0
20260506005039 50 326 5.0 13.0 0.00 0.00 0.00 36 1009.0
20260506004031 51 337 4.0 9.0 0.00 0.00 0.00 35 1009.0
20260506003029 52 330 5.0 15.0 0.00 0.00 0.00 34 1008.8
20260506002024 53 325 6.0 18.0 0.00 0.00 0.00 33 1008.8
20260506001021 54 312 5.0 16.0 0.00 0.00 0.00 32 1008.7
20260506000038 55 322 4.0 13.0 0.00 0.00 0.00 32 1008.6
20260505235035 55 322 5.0 16.0 0.00 0.00 0.00 31 1008.6
20260505234031 56 322 5.0 16.0 0.00 0.00 0.00 29 1008.4
20260505233028 57 314 3.0 10.0 0.00 0.00 0.00 29 1008.4
20260505232024 55 324 3.0 9.0 0.00 0.00 0.00 30 1008.3
20260505231022 56 309 4.0 14.0 0.00 0.00 0.00 29 1008.2
20260505230037 58 302 5.0 19.0 0.00 0.00 0.00 28 1008.2
20260505225034 58 306 5.0 14.0 0.00 0.00 0.00 28 1008.2
20260505224052 59 299 4.0 14.0 0.00 0.00 0.00 27 1008.0
20260505223028 59 295 4.0 16.0 0.00 0.00 0.00 27 1008.1
20260505222024 59 311 6.0 17.0 0.00 0.00 0.00 26 1008.1
20260505221021 59 317 5.0 14.0 0.00 0.00 0.00 25 1008.1
20260505220018 59 309 6.0 17.0 0.00 0.00 0.00 26 1008.0
20260505215034 59 306 6.0 22.0 0.00 0.00 0.00 25 1007.9
20260505214031 59 305 6.0 21.0 0.00 0.00 0.00 25 1007.9
20260505213028 60 290 6.0 15.0 0.00 0.00 0.00 25 1008.0
20260505212024 60 308 6.0 16.0 0.00 0.00 0.00 26 1008.0
20260505211041 60 291 6.0 16.0 0.00 0.00 0.00 26 1007.8
20260505210018 60 297 6.0 14.0 0.00 0.00 0.00 26 1007.7
20260505205034 60 279 6.0 19.0 0.00 0.00 0.00 26 1007.9
20260505204031 60 283 6.0 13.0 0.00 0.00 0.00 25 1007.9
20260505203028 60 294 5.0 13.0 0.00 0.00 0.00 26 1008.0
20260505202045 60 296 6.0 23.0 0.00 0.00 0.00 25 1007.8
20260505201021 60 281 7.0 15.0 0.00 0.00 0.00 25 1007.9
20260505200058 60 297 5.0 16.0 0.00 0.00 0.00 25 1007.9
20260505195007 60 344 4.0 13.0 0.00 0.00 0.00 27 1008.0
20260505194045 59 296 6.0 21.0 0.00 0.00 0.00 27 1007.8
20260505193022 59 288 6.0 17.0 0.00 0.00 0.00 28 1007.7
20260505192200 59 291 7.0 17.0 0.00 0.00 0.00 27 1007.7
20260505191036 59 269 7.0 18.0 0.00 0.00 0.00 28 1007.6
20260505190032 59 289 7.0 23.0 0.00 0.00 0.00 26 1007.4
20260505185028 59 275 7.0 18.0 0.00 0.00 0.00 27 1007.4
20260505184025 60 295 7.0 16.0 0.00 0.00 0.00 28 1007.4
20260505183022 59 304 5.0 14.0 0.00 0.00 0.00 29 1007.3
20260505182039 59 282 6.0 13.0 0.00 0.00 0.00 30 1007.3
20260505181035 59 283 6.0 16.0 0.00 0.00 0.00 31 1007.4
20260505180052 59 298 5.0 18.0 0.00 0.00 0.00 31 1007.3
20260505175028 59 283 5.0 15.0 0.00 0.00 0.00 32 1007.4
20260505174026 58 277 6.0 18.0 0.00 0.00 0.00 32 1007.4